Time,TemperatureF,DewpointF,PressureIn,WindDirection,WindDirectionDegrees,WindSpeedMPH,WindSpeedGustMPH,Humidity,HourlyPrecipIn,Conditions,Clouds,dailyrainin,SoftwareType,DateUTC
2013-07-14 00:01:00,62.0,37.0,-100.00,NNW,340,11.0,16.0,39,0.00,,,-99.99,,2013-07-14 06:01:00,
2013-07-14 00:11:00,62.0,37.0,-100.00,NNW,340,11.0,16.0,39,0.00,,,-99.99,,2013-07-14 06:11:00,
2013-07-14 00:42:00,61.0,39.0,-100.00,NNW,337,13.0,17.0,44,0.00,,,0.00,,2013-07-14 06:42:00,
2013-07-14 00:53:00,61.0,39.0,-100.00,NNW,337,13.0,17.0,44,0.00,,,0.00,,2013-07-14 06:53:00,
2013-07-14 01:02:00,61.0,39.0,-100.00,NNW,337,13.0,17.0,44,0.00,,,0.00,,2013-07-14 07:02:00,
2013-07-14 01:11:00,61.0,39.0,-100.00,NNW,337,13.0,17.0,44,0.00,,,0.00,,2013-07-14 07:11:00,
2013-07-14 01:53:00,59.0,39.0,-100.00,NW,317,8.0,12.0,48,0.00,,,-99.99,,2013-07-14 07:53:00,
2013-07-14 02:01:00,59.0,39.0,-100.00,NW,317,8.0,12.0,48,0.00,,,-99.99,,2013-07-14 08:01:00,
2013-07-14 02:11:00,59.0,39.0,-100.00,NW,317,8.0,12.0,48,0.00,,,-99.99,,2013-07-14 08:11:00,
2013-07-14 02:42:00,55.0,40.0,-100.00,WNW,288,1.0,3.0,56,0.00,,,-99.99,,2013-07-14 08:42:00,
2013-07-14 02:53:00,55.0,40.0,-100.00,WNW,288,1.0,3.0,56,0.00,,,-99.99,,2013-07-14 08:53:00,
2013-07-14 03:01:00,55.0,40.0,-100.00,WNW,288,1.0,3.0,56,0.00,,,-99.99,,2013-07-14 09:01:00,
2013-07-14 03:11:00,55.0,40.0,-100.00,WNW,288,1.0,3.0,56,0.00,,,-99.99,,2013-07-14 09:11:00,
2013-07-14 03:42:00,55.0,40.0,-100.00,ENE,74,1.0,5.0,57,0.01,,,0.00,,2013-07-14 09:42:00,
2013-07-14 03:53:00,55.0,40.0,-100.00,ENE,74,1.0,5.0,57,0.01,,,0.00,,2013-07-14 09:53:00,
2013-07-14 04:01:00,55.0,40.0,-100.00,ENE,74,1.0,5.0,57,0.01,,,0.00,,2013-07-14 10:01:00,
2013-07-14 04:11:00,55.0,40.0,-100.00,ENE,74,1.0,5.0,57,0.01,,,0.00,,2013-07-14 10:11:00,
2013-07-14 04:42:00,46.0,39.0,-100.00,South,186,5.0,7.0,77,0.00,,,0.00,,2013-07-14 10:42:00,
2013-07-14 04:53:00,46.0,39.0,-100.00,South,186,5.0,7.0,77,0.00,,,0.00,,2013-07-14 10:53:00,
2013-07-14 05:01:00,46.0,39.0,-100.00,South,186,5.0,7.0,77,0.00,,,0.00,,2013-07-14 11:01:00,
2013-07-14 05:11:00,46.0,39.0,-100.00,South,186,5.0,7.0,77,0.00,,,0.00,,2013-07-14 11:11:00,
2013-07-14 05:43:00,45.0,39.0,-100.00,South,185,4.0,6.0,80,0.00,,,0.00,,2013-07-14 11:43:00,
2013-07-14 05:53:00,45.0,39.0,-100.00,South,185,4.0,6.0,80,0.00,,,0.00,,2013-07-14 11:53:00,
2013-07-14 06:02:00,45.0,39.0,-100.00,South,185,4.0,6.0,80,0.00,,,0.00,,2013-07-14 12:02:00,
2013-07-14 06:11:00,45.0,39.0,-100.00,South,185,4.0,6.0,80,0.00,,,0.00,,2013-07-14 12:11:00,
2013-07-14 06:53:00,42.0,39.0,-100.00,South,181,3.0,7.0,88,0.00,,,0.00,,2013-07-14 12:53:00,
2013-07-14 07:01:00,42.0,39.0,-100.00,South,181,3.0,7.0,88,0.00,,,0.00,,2013-07-14 13:01:00,
2013-07-14 07:11:00,42.0,39.0,-100.00,South,181,3.0,7.0,88,0.00,,,0.00,,2013-07-14 13:11:00,
2013-07-14 07:42:00,50.0,41.0,-100.00,South,173,5.0,8.0,70,0.00,,,0.00,,2013-07-14 13:42:00,
2013-07-14 07:53:00,50.0,41.0,-100.00,South,173,5.0,8.0,70,0.00,,,0.00,,2013-07-14 13:53:00,
2013-07-14 08:01:00,50.0,41.0,-100.00,South,173,5.0,8.0,70,0.00,,,0.00,,2013-07-14 14:01:00,
2013-07-14 08:11:00,50.0,41.0,-100.00,South,173,5.0,8.0,70,0.00,,,0.00,,2013-07-14 14:11:00,
2013-07-14 08:43:00,56.0,41.0,-100.00,SE,137,2.0,4.0,57,0.00,,,0.00,,2013-07-14 14:43:00,
2013-07-14 08:53:00,56.0,41.0,-100.00,SE,137,2.0,4.0,57,0.00,,,0.00,,2013-07-14 14:53:00,
2013-07-14 09:01:00,56.0,41.0,-100.00,SE,137,2.0,4.0,57,0.00,,,0.00,,2013-07-14 15:01:00,
2013-07-14 09:11:00,56.0,41.0,-100.00,SE,137,2.0,4.0,57,0.00,,,0.00,,2013-07-14 15:11:00,
2013-07-14 09:42:00,61.0,41.0,-100.00,NE,36,3.0,6.0,47,-99.99,,,-99.99,,2013-07-14 15:42:00,
2013-07-14 09:53:00,61.0,41.0,-100.00,NE,36,3.0,6.0,47,-99.99,,,-99.99,,2013-07-14 15:53:00,
2013-07-14 10:01:00,61.0,41.0,-100.00,NE,36,3.0,6.0,47,-99.99,,,-99.99,,2013-07-14 16:01:00,
2013-07-14 10:11:00,61.0,41.0,-100.00,NE,36,3.0,6.0,47,-99.99,,,-99.99,,2013-07-14 16:11:00,
2013-07-14 10:43:00,66.0,44.0,-100.00,ESE,112,3.0,7.0,45,0.00,,,0.00,,2013-07-14 16:43:00,
2013-07-14 10:53:00,66.0,44.0,-100.00,ESE,112,3.0,7.0,45,0.00,,,0.00,,2013-07-14 16:53:00,
2013-07-14 11:02:00,66.0,44.0,-100.00,ESE,112,3.0,7.0,45,0.00,,,0.00,,2013-07-14 17:02:00,
2013-07-14 11:11:00,66.0,44.0,-100.00,ESE,112,3.0,7.0,45,0.00,,,0.00,,2013-07-14 17:11:00,
2013-07-14 11:43:00,67.0,46.0,-100.00,SSE,158,5.0,8.0,47,0.00,,,-99.99,,2013-07-14 17:43:00,
2013-07-14 11:53:00,67.0,46.0,-100.00,SSE,158,5.0,8.0,47,0.00,,,-99.99,,2013-07-14 17:53:00,
2013-07-14 12:01:00,67.0,46.0,-100.00,SSE,158,5.0,8.0,47,0.00,,,-99.99,,2013-07-14 18:01:00,
2013-07-14 12:11:00,67.0,46.0,-100.00,SSE,158,5.0,8.0,47,0.00,,,-99.99,,2013-07-14 18:11:00,
2013-07-14 12:42:00,71.0,46.0,-100.00,NNE,29,5.0,9.0,41,0.00,,,0.00,,2013-07-14 18:42:00,
2013-07-14 12:52:00,71.0,46.0,-100.00,NNE,29,5.0,9.0,41,0.00,,,0.00,,2013-07-14 18:52:00,
2013-07-14 13:01:00,71.0,46.0,-100.00,NNE,29,5.0,9.0,41,0.00,,,0.00,,2013-07-14 19:01:00,
2013-07-14 13:11:00,71.0,46.0,-100.00,NNE,29,5.0,9.0,41,0.00,,,0.00,,2013-07-14 19:11:00,
2013-07-14 13:43:00,77.0,42.0,-100.00,ENE,58,4.0,12.0,28,0.00,,,0.00,,2013-07-14 19:43:00,
2013-07-14 13:53:00,77.0,42.0,-100.00,ENE,58,4.0,12.0,28,0.00,,,0.00,,2013-07-14 19:53:00,
2013-07-14 14:01:00,77.0,42.0,-100.00,ENE,58,4.0,12.0,28,0.00,,,0.00,,2013-07-14 20:01:00,
2013-07-14 14:11:00,77.0,42.0,-100.00,ENE,58,4.0,12.0,28,0.00,,,0.00,,2013-07-14 20:11:00,
2013-07-14 14:43:00,78.0,40.0,-100.00,NNE,23,6.0,11.0,26,0.00,,,0.00,,2013-07-14 20:43:00,
2013-07-14 14:53:00,78.0,40.0,-100.00,NNE,23,6.0,11.0,26,0.00,,,0.00,,2013-07-14 20:53:00,
2013-07-14 15:01:00,78.0,40.0,-100.00,NNE,23,6.0,11.0,26,0.00,,,0.00,,2013-07-14 21:01:00,
2013-07-14 15:11:00,78.0,40.0,-100.00,NNE,23,6.0,11.0,26,0.00,,,0.00,,2013-07-14 21:11:00,
2013-07-14 15:42:00,83.0,27.0,-100.00,West,281,13.0,24.0,13,0.00,,,0.00,,2013-07-14 21:42:00,
2013-07-14 15:52:00,83.0,27.0,-100.00,West,281,13.0,24.0,13,0.00,,,0.00,,2013-07-14 21:52:00,
2013-07-14 16:01:00,83.0,27.0,-100.00,West,281,13.0,24.0,13,0.00,,,0.00,,2013-07-14 22:01:00,
2013-07-14 16:11:00,83.0,27.0,-100.00,West,281,13.0,24.0,13,0.00,,,0.00,,2013-07-14 22:11:00,
2013-07-14 16:42:00,85.0,26.0,-100.00,WNW,301,9.0,22.0,12,0.00,,,0.00,,2013-07-14 22:42:00,
2013-07-14 16:53:00,85.0,26.0,-100.00,WNW,301,9.0,22.0,12,0.00,,,0.00,,2013-07-14 22:53:00,
2013-07-14 17:01:00,85.0,26.0,-100.00,WNW,301,9.0,22.0,12,0.00,,,0.00,,2013-07-14 23:01:00,
2013-07-14 17:11:00,85.0,26.0,-100.00,WNW,301,9.0,22.0,12,0.00,,,0.00,,2013-07-14 23:11:00,
2013-07-14 17:42:00,85.0,27.0,-100.00,WSW,244,6.0,15.0,12,0.00,,,0.00,,2013-07-14 23:42:00,
2013-07-14 17:53:00,85.0,27.0,-100.00,WSW,244,6.0,15.0,12,0.00,,,0.00,,2013-07-14 23:53:00,
2013-07-14 18:02:00,85.0,27.0,-100.00,WSW,244,6.0,15.0,12,0.00,,,0.00,,2013-07-15 00:02:00,
2013-07-14 18:11:00,85.0,27.0,-100.00,WSW,244,6.0,15.0,12,0.00,,,0.00,,2013-07-15 00:11:00,
2013-07-14 18:53:00,83.0,27.0,-100.00,NE,54,12.0,19.0,13,0.00,,,0.00,,2013-07-15 00:53:00,
2013-07-14 19:01:00,83.0,27.0,-100.00,NE,54,12.0,19.0,13,0.00,,,0.00,,2013-07-15 01:01:00,
2013-07-14 19:11:00,83.0,27.0,-100.00,NE,54,12.0,19.0,13,0.00,,,0.00,,2013-07-15 01:11:00,
2013-07-14 19:43:00,80.0,34.0,-100.00,NNE,25,10.0,16.0,19,0.00,,,0.00,,2013-07-15 01:43:00,
2013-07-14 19:53:00,80.0,34.0,-100.00,NNE,25,10.0,16.0,19,0.00,,,0.00,,2013-07-15 01:53:00,
2013-07-14 20:02:00,80.0,34.0,-100.00,NNE,25,10.0,16.0,19,0.00,,,0.00,,2013-07-15 02:02:00,
2013-07-14 20:11:00,80.0,34.0,-100.00,NNE,25,10.0,16.0,19,0.00,,,0.00,,2013-07-15 02:11:00,
2013-07-14 20:42:00,76.0,33.0,-100.00,NNE,16,7.0,11.0,21,0.00,,,0.00,,2013-07-15 02:42:00,
2013-07-14 20:53:00,76.0,33.0,-100.00,NNE,16,7.0,11.0,21,0.00,,,0.00,,2013-07-15 02:53:00,
2013-07-14 21:02:00,76.0,33.0,-100.00,NNE,16,7.0,11.0,21,0.00,,,0.00,,2013-07-15 03:02:00,
2013-07-14 21:11:00,76.0,33.0,-100.00,NNE,16,7.0,11.0,21,0.00,,,0.00,,2013-07-15 03:11:00,
2013-07-14 21:42:00,69.0,29.0,-100.00,NNW,331,6.0,7.0,23,0.00,,,0.00,,2013-07-15 03:42:00,
2013-07-14 21:53:00,69.0,29.0,-100.00,NNW,331,6.0,7.0,23,0.00,,,0.00,,2013-07-15 03:53:00,
2013-07-14 22:01:00,69.0,29.0,-100.00,NNW,331,6.0,7.0,23,0.00,,,0.00,,2013-07-15 04:01:00,
2013-07-14 22:11:00,69.0,29.0,-100.00,NNW,331,6.0,7.0,23,0.00,,,0.00,,2013-07-15 04:11:00,
2013-07-14 22:42:00,66.0,32.0,-100.00,NNE,21,6.0,8.0,28,0.00,,,0.00,,2013-07-15 04:42:00,
2013-07-14 22:53:00,66.0,32.0,-100.00,NNE,21,6.0,8.0,28,0.00,,,0.00,,2013-07-15 04:53:00,
2013-07-14 23:02:00,66.0,32.0,-100.00,NNE,21,6.0,8.0,28,0.00,,,0.00,,2013-07-15 05:02:00,
2013-07-14 23:11:00,66.0,32.0,-100.00,NNE,21,6.0,8.0,28,0.00,,,0.00,,2013-07-15 05:11:00,
2013-07-14 23:43:00,61.0,30.0,-100.00,NW,308,5.0,8.0,31,0.00,,,0.00,,2013-07-15 05:43:00,
2013-07-14 23:53:00,61.0,30.0,-100.00,NW,308,5.0,8.0,31,0.00,,,0.00,,2013-07-15 05:53:00,